Regional Weather Roundup
Issued by NWS

Home | Current Version | Previous Version | Text Only | Print | Product List | Glossary On
Versions: 1 2 3 4 5 6 7 8 9 10 11 12 13 14 15 16 17 18 19 20 21 22 23 24 25 26 27 28 29 30 31 32 33 34 35 36 37 38 39 40 41 42 43 44 45 46 47 48 49 50
549
ASUS44 KLIX 240405
RWRLA
LOUISIANA WEATHER ROUNDUP
NATIONAL WEATHER SERVICE NEW ORLEANS LA
1100 PM CDT THU OCT 23 2014

NOTE: "FAIR" INDICATES FEW OR NO CLOUDS BELOW 12,000 FEET WITH NO
      SIGNIFICANT WEATHER AND/OR OBSTRUCTIONS TO VISIBILITY.
      SKY/WX - SKY CONDITION AND SIGNIFICANT WEATHER.
      TMP - AIR TEMPERATURE.    DP   - DEWPOINT TEMPERATURE.
      RH  - RELATIVE HUMIDITY.  PRES - PRESSURE.
      HX  - HEAT INDEX.         WCI  - WIND CHILL INDEX.

*  THESE STATIONS ARE NOT NWS OR FAA STATIONS AND ARE NOT UNDER
   NWS QUALITY CONTROL.

LAZ040-048-061>063-065-066-069-240500-
SOUTHEAST LOUISIANA

CITY           SKY/WX    TMP DP  RH WIND       PRES   REMARKS
N.O. AUDUBON     N/A     61  56  81 MISG        N/A
N.O. INTL ARPT PTCLDY    63  52  67 NE3       30.08S
N.O. LAKEFRONT PTCLDY    69  53  56 NE12      30.08F
N.O. DOWNTOWN* FAIR      68  48  49 CALM      30.08F
SLIDELL        PTCLDY    56  52  86 CALM      30.08S
BATON ROUGE    CLEAR     56  51  84 NE3       30.10S
BOOTHVILLE     MOCLDY    69  54  58 NE5       30.07S
BELLE CHASSE   PTCLDY    56  52  86 CALM      30.07F
BOGALUSA*        N/A     58  49  72 CALM      30.11S
NEW ROADS*     FAIR      56  51  84 CALM      30.11S
GONZALES*      FAIR      58  54  86 N5        30.09F
HAMMOND*       MOCLDY    59  50  72 N5        30.11S
HOUMA*         CLEAR     56  52  88 N7        30.08S
PORT FOURCHON* CLEAR     68  59  73 NE6       30.10F

$$

LAZ041-044-053-054-240500-
SOUTHWEST LOUISIANA

CITY           SKY/WX    TMP DP  RH WIND       PRES   REMARKS
LAKE CHARLES   CLEAR     56  51  84 NE6       30.10F
LAFAYETTE      CLEAR     56  51  84 NE6       30.11S
PATTERSON      CLEAR     61  54  77 N9        30.11F
SALT POINT       N/A     62  55  77 N5        30.08S
NEW IBERIA     CLEAR     57  51  80 N6        30.11S
CHENAULT AIRPK CLEAR     57  51  80 NE5       30.11F

$$

LAZ027-028-240500-
CENTRAL LOUISIANA

CITY           SKY/WX    TMP DP  RH WIND       PRES   REMARKS
FORT POLK      CLEAR     54  52  91 NE2       30.11F
ALEXANDRIA INT CLEAR     49  48  97 CALM      30.11S
ALEXANDRIA     PTCLDY    46  46 100 CALM      30.12F FOG

$$

LAZ001-002-240500-
NORTHWEST LOUISIANA

CITY           SKY/WX    TMP DP  RH WIND       PRES   REMARKS
SHREVEPORT     CLEAR     56  51  84 CALM      30.13S
BARKSDALE AFB  CLEAR     52  50  92 CALM      30.14S
DTN SHREVEPORT CLEAR     54  49  83 CALM      30.14S

$$

LAZ014-016-240500-
NORTHEAST LOUISIANA

CITY           SKY/WX    TMP DP  RH WIND       PRES   REMARKS
MONROE         CLEAR     48  47  96 CALM      30.15S FOG
TALLULAH       CLEAR     52  49  89 N3        30.13F

$$




USA.gov is the U.S. government's official web portal to all federal, state and local government web resources and services.